Wind_Speed
13 13 13 13 12 11 11 10 10 9 9 9 10 11 12 13 14 15 16 16 17 18 18 19 20 21 22 22 22 22 22 21 22 22 24 24 24 25 24 24 22 16 14 17 19 20 21 19 18 19 21 24 26 27 28 30 32 33 33 33 34 35 36
14 14 13 13 12 11 11 10 10 10 9 9 9 10 10 11 12 14 15 15 15 16 17 18 19 20 20 20 22 23 22 22 22 21 23 24 24 24 24 24 23 20 16 16 18 20 21 20 21 21 20 20 23 26 28 30 32 32 33 33 32 32 34
13 13 13 12 12 11 11 11 10 10 10 10 10 10 10 11 11 13 14 14 15 15 16 16 18 18 18 18 20 23 23 22 22 22 23 24 24 24 25 24 24 23 20 18 18 19 20 20 20 23 23 20 20 23 26 29 32 32 33 33 32 32 33
12 12 12 11 11 11 11 11 11 10 10 10 10 10 11 12 13 13 13 13 15 16 16 17 17 17 17 17 19 21 21 20 21 22 22 23 23 24 25 24 24 24 23 21 19 19 19 19 19 21 23 21 20 21 24 28 31 32 34 34 34 33 33
12 12 11 11 11 11 10 10 10 10 10 10 10 10 11 11 12 12 12 13 14 15 16 17 19 20 19 19 20 21 21 20 21 22 23 24 24 24 24 24 24 25 25 23 21 20 19 19 20 21 21 21 20 20 21 24 28 31 32 33 34 35 34
12 12 12 11 11 11 11 10 10 10 9 9 9 9 10 10 11 11 12 12 12 12 13 14 16 18 18 18 19 20 20 20 21 22 24 25 26 26 25 24 24 24 25 24 24 23 20 19 20 21 21 21 21 21 21 21 23 27 30 31 31 33 33
12 12 11 11 11 11 11 11 10 9 8 9 10 10 11 11 11 11 11 11 11 11 11 12 12 13 13 14 15 17 19 19 20 21 22 24 26 26 25 25 25 24 24 24 24 23 21 19 20 22 23 24 23 22 23 23 21 20 24 28 30 32 32
12 11 11 10 10 10 11 10 10 9 9 11 12 12 12 11 11 10 10 10 10 9 9 9 9 9 10 10 11 13 15 16 16 18 20 22 24 24 24 25 24 24 26 25 24 23 21 19 20 23 24 24 24 23 24 25 23 20 21 24 27 31 31
11 11 11 10 10 10 10 10 9 9 10 13 14 14 13 11 9 8 8 7 8 8 8 9 9 10 11 12 12 13 13 13 13 14 15 17 19 21 23 23 23 24 24 23 21 22 22 20 20 23 24 22 23 24 24 24 24 24 24 23 23 28 31
11 11 11 11 11 12 11 10 10 10 11 13 14 15 14 11 9 9 8 7 9 10 11 12 13 13 14 15 14 14 15 14 14 13 14 14 15 16 18 19 22 23 22 19 18 19 20 18 19 24 25 23 25 26 25 25 24 23 25 24 19 21 27
11 10 10 10 12 13 12 11 11 11 13 14 13 15 13 7 7 9 7 8 10 11 11 12 13 13 12 12 13 13 14 14 15 15 15 16 16 17 17 18 18 19 19 19 18 19 20 18 20 24 25 24 25 26 25 26 25 22 22 23 17 14 18
10 9 10 11 12 12 11 11 11 12 14 14 12 14 10 4 6 8 7 8 11 11 10 11 10 9 9 9 11 12 13 15 16 15 15 16 18 19 20 21 21 20 19 18 17 18 21 21 22 24 26 25 25 25 25 25 26 25 24 23 20 17 18
10 9 10 11 11 11 10 9 10 12 14 13 12 13 10 5 7 8 7 9 11 10 9 9 8 8 8 9 11 13 14 17 18 17 17 18 18 18 19 20 21 22 23 22 21 20 22 25 25 24 26 28 26 25 24 24 25 26 26 24 23 24 24
9 9 11 11 10 9 8 8 10 13 13 12 13 13 11 8 8 7 6 8 10 9 8 7 7 9 9 11 15 16 16 18 19 19 19 19 19 19 19 19 19 21 23 25 25 24 23 26 27 28 29 30 28 26 26 26 25 25 26 27 27 29 29
9 9 10 10 9 7 7 7 10 13 13 13 14 14 11 9 9 7 6 7 8 8 6 5 7 9 11 13 16 17 17 19 20 20 19 19 19 19 19 19 19 20 21 23 25 26 27 28 28 28 30 31 31 30 30 30 29 29 29 29 28 29 29
8 8 8 7 7 6 6 7 10 13 14 14 14 13 11 9 8 6 6 8 7 5 4 5 7 9 11 12 14 16 18 19 20 20 19 19 19 19 19 18 17 17 18 19 21 23 26 29 30 30 30 31 32 33 34 33 30 29 28 26 22 21 24
8 7 6 5 5 6 7 9 10 12 14 14 14 13 10 8 8 6 7 8 6 3 4 6 7 9 10 11 14 17 19 19 19 18 18 18 19 18 17 16 16 17 17 17 18 19 21 23 27 29 29 29 29 29 32 31 29 29 28 23 16 12 16
8 7 5 4 5 5 8 11 12 12 13 14 14 13 10 8 7 6 7 7 6 4 6 7 8 9 10 11 15 18 19 19 19 18 18 17 18 18 16 15 18 21 22 21 21 21 21 21 23 24 26 27 27 27 28 27 26 30 30 24 17 15 16
7 6 5 4 4 5 9 12 13 12 13 15 14 13 11 8 7 7 7 7 5 5 6 7 8 9 10 13 17 19 20 20 20 20 19 16 15 16 17 18 21 23 23 25 26 26 26 26 25 24 24 26 27 28 28 27 26 28 30 26 21 20 16
5 5 5 4 4 5 7 10 12 14 14 15 14 14 11 8 7 6 6 6 5 5 7 8 8 9 12 16 20 21 21 20 20 21 19 15 14 16 18 20 23 23 24 26 27 27 26 26 24 23 23 24 25 26 26 26 25 26 30 30 27 24 20
5 5 5 5 4 4 5 7 10 13 15 14 14 14 12 8 7 6 6 8 8 8 8 9 10 11 14 19 22 22 21 20 20 20 18 15 16 19 21 23 24 24 23 23 23 22 22 22 21 20 20 21 22 22 22 22 23 25 27 31 32 29 23
4 5 5 5 5 5 5 7 8 11 14 13 13 14 11 10 11 10 9 10 9 9 9 10 13 15 17 20 22 21 20 20 18 17 15 16 18 20 21 22 21 19 18 18 18 19 18 18 19 19 19 19 19 20 20 20 22 24 26 29 33 33 29
5 5 5 5 4 4 6 7 8 10 12 12 12 12 10 10 12 11 12 11 9 9 10 12 15 17 18 20 20 19 19 18 16 15 15 17 19 20 20 18 16 15 15 15 16 16 17 17 17 17 17 17 17 18 20 21 20 21 23 26 30 34 35
5 5 5 4 4 4 6 7 8 9 11 12 11 9 8 10 12 12 13 11 9 8 11 14 16 17 18 18 18 18 17 15 14 15 16 18 19 19 17 15 14 14 15 14 14 14 15 15 15 15 16 17 19 21 22 23 23 23 21 22 25 28 32
5 5 5 4 3 5 6 6 7 8 10 12 10 8 8 10 11 11 13 12 10 11 14 16 15 15 16 16 16 16 15 14 14 16 16 17 18 17 15 15 15 15 15 15 14 14 14 15 16 18 21 24 27 27 24 23 23 23 23 21 21 22 26
5 5 5 4 4 6 6 6 6 7 10 11 9 8 10 9 9 12 14 12 11 14 15 14 13 13 13 13 14 14 13 13 14 15 15 16 17 16 15 15 16 16 15 15 15 15 16 17 18 19 21 23 24 23 22 21 21 21 21 20 19 19 21
6 6 5 5 5 6 6 6 5 7 11 12 9 8 9 8 10 13 14 13 14 15 14 12 11 11 11 12 12 12 11 12 13 14 15 16 16 15 15 15 15 15 15 15 15 16 17 18 18 19 19 19 19 19 19 19 20 20 19 19 19 18 18
7 7 5 5 6 7 6 5 4 7 13 13 9 9 9 9 10 12 13 12 13 13 12 10 9 10 10 11 11 11 11 12 13 13 14 15 15 15 14 15 15 15 15 15 16 17 17 18 18 18 18 18 18 18 18 19 20 21 21 21 19 17 16
8 6 4 5 6 5 5 4 4 7 12 12 9 9 9 8 8 11 12 12 11 9 9 8 7 8 10 10 10 11 11 12 12 13 13 14 14 14 14 14 15 15 16 16 16 16 17 18 18 18 18 18 18 18 19 20 21 21 21 22 21 18 16
4 3 2 3 4 3 2 3 5 7 10 10 8 9 9 7 8 10 12 11 8 5 6 7 6 7 9 9 9 10 11 11 12 13 13 14 14 14 14 14 13 15 16 16 15 16 16 17 17 17 18 18 18 19 20 21 21 21 20 19 19 18 17
3 4 3 2 2 1 1 3 4 5 8 9 8 9 9 7 7 9 10 9 7 4 5 6 6 6 8 8 9 9 10 11 11 12 13 14 13 13 14 13 14 15 16 15 15 15 16 16 16 16 17 18 18 19 20 20 20 21 20 19 18 17 18
3 3 4 4 4 2 3 5 6 6 7 9 9 10 9 7 7 9 9 7 6 5 5 6 5 6 7 8 8 9 10 10 11 12 12 13 13 13 13 13 15 16 16 14 14 15 16 16 16 16 17 18 18 18 18 19 19 19 19 19 19 17 18
1 0 1 3 5 4 4 5 6 6 7 7 8 9 9 6 6 8 8 8 6 5 5 5 5 6 6 7 8 8 9 10 10 11 12 12 13 13 14 14 15 16 15 13 14 15 15 15 16 17 17 17 17 17 17 17 18 18 18 18 18 17 18
3 2 3 2 2 2 3 3 3 4 6 7 8 9 7 4 4 5 6 7 6 5 5 5 5 5 6 6 7 8 9 10 10 10 11 11 12 13 14 15 15 14 13 13 14 15 15 15 16 16 17 17 17 17 17 17 17 17 17 16 17 17 17
3 3 3 3 4 4 4 3 2 3 5 6 8 9 6 3 3 4 4 5 5 5 4 5 5 5 5 6 7 8 9 9 10 10 10 11 12 13 13 14 14 13 13 14 14 15 15 15 16 16 16 16 17 17 17 17 16 16 16 16 17 17 17
2 3 3 3 3 4 4 2 2 3 4 5 6 7 5 4 3 4 4 4 4 4 5 5 5 5 6 6 7 8 8 9 10 10 10 10 11 12 13 13 13 13 13 14 14 14 15 15 15 15 16 16 16 16 16 16 16 16 16 16 17 17 17
Wind_Direction
329 329 329 328 326 324 323 324 322 319 311 295 281 271 265 261 257 254 253 253 250 248 247 248 248 248 245 243 243 243 242 241 240 239 239 239 239 240 240 241 242 248 260 255 246 248 250 246 244 236 223 224 229 229 231 234 234 236 238 240 241 242 242
326 327 327 326 324 323 324 324 323 323 320 311 304 296 286 275 269 264 260 258 256 254 252 252 252 251 248 245 245 246 245 244 242 240 241 240 238 241 240 238 241 246 254 257 248 247 250 246 245 246 237 226 227 230 230 231 231 232 235 237 239 240 241
323 324 325 325 324 324 325 325 325 324 320 314 309 306 301 291 284 279 274 268 265 263 261 259 258 256 253 249 248 249 248 246 245 243 244 243 240 243 244 240 241 245 250 257 254 247 247 247 244 247 247 239 232 233 234 232 232 234 237 238 238 238 241
322 323 323 323 323 323 324 324 323 322 321 317 313 310 305 298 291 288 287 283 277 274 271 269 267 264 260 257 256 255 252 247 246 245 245 246 246 245 247 245 243 245 249 255 258 250 246 248 247 246 248 246 239 238 238 236 237 237 238 240 240 239 240
323 324 324 323 323 322 322 323 321 320 318 316 314 312 307 304 298 293 291 289 283 280 277 275 273 270 268 266 263 262 259 253 250 249 248 248 249 248 249 248 245 246 249 252 256 256 251 249 250 248 248 246 243 244 243 240 238 238 238 238 238 239 239
323 324 322 323 324 324 324 324 324 323 321 318 318 315 311 307 302 296 292 289 287 285 282 280 279 276 273 270 269 267 266 262 257 254 252 250 249 248 247 247 246 245 247 248 253 257 256 250 248 249 249 245 244 247 247 242 240 238 237 236 235 236 238
322 322 322 323 324 326 327 327 327 326 327 331 329 321 313 305 299 296 292 290 291 293 292 290 289 289 287 283 281 280 278 274 267 260 256 253 251 250 247 246 246 245 244 246 249 252 252 248 246 248 250 248 248 251 249 244 242 239 234 231 232 235 237
321 321 321 322 324 327 329 330 332 332 336 339 334 325 315 309 303 299 298 299 300 301 304 306 306 309 311 308 306 304 299 293 284 274 266 259 255 252 249 247 247 244 241 240 242 245 246 246 247 247 248 246 245 245 244 242 242 242 237 232 231 234 235
321 322 321 322 323 326 330 333 332 333 337 337 332 328 323 318 315 316 321 326 324 322 328 330 326 325 324 324 324 322 318 314 310 303 292 280 269 259 253 249 246 243 239 235 235 239 243 245 245 244 243 241 237 234 235 239 240 242 244 241 234 233 234
320 321 321 321 319 322 329 333 328 330 336 333 328 328 328 324 324 332 344 351 341 336 338 334 327 323 320 318 317 315 311 309 308 308 305 300 292 280 269 259 249 241 237 234 232 234 238 240 243 243 240 239 238 236 236 237 236 238 243 243 236 234 234
317 318 320 317 315 319 326 328 327 334 337 333 330 329 326 319 331 343 354 356 347 344 345 338 332 331 327 324 326 324 318 313 309 304 299 294 291 287 283 277 266 253 242 235 232 235 237 238 242 246 246 243 242 242 240 237 236 236 237 236 231 232 234
312 315 316 314 313 320 327 330 334 341 339 335 335 333 326 319 346 353 357 348 342 344 346 341 337 338 337 335 337 334 326 320 315 312 310 305 297 291 285 280 277 273 262 248 239 237 238 240 244 248 249 247 245 246 244 239 236 234 232 231 230 232 235
307 309 313 316 319 326 333 340 346 346 342 341 341 339 339 351 0 358 352 342 340 341 341 341 341 344 344 342 340 336 330 326 323 320 319 316 310 303 296 288 281 277 274 269 262 253 245 244 246 249 250 250 249 248 246 242 238 234 231 231 231 234 239
304 307 313 320 326 332 339 351 354 349 346 348 346 342 345 357 5 1 350 344 342 338 336 342 350 349 344 340 340 338 334 332 330 326 320 315 312 308 304 299 291 283 279 276 274 270 263 257 253 251 254 255 253 248 246 245 241 235 232 232 234 238 243
304 306 312 320 330 336 343 353 354 350 350 351 347 345 346 348 350 346 338 341 340 334 336 351 357 353 344 339 340 338 336 334 329 325 319 312 309 307 303 300 296 292 287 282 277 274 273 271 267 261 259 257 255 252 250 249 247 242 238 237 240 243 244
304 306 309 317 330 342 347 351 354 352 352 352 349 350 350 344 339 334 326 331 332 330 340 346 348 347 342 341 341 337 335 332 326 322 319 313 310 306 300 296 294 292 291 291 289 283 278 275 273 271 268 264 260 257 253 250 248 244 240 237 238 239 238
304 306 308 313 330 349 349 347 354 355 353 352 353 355 354 343 334 326 320 323 321 315 329 334 340 346 346 347 345 338 335 333 329 329 331 329 327 321 312 307 306 300 295 296 300 300 295 288 281 278 277 275 272 267 259 250 240 235 233 231 229 229 227
303 304 304 305 321 347 348 345 353 358 354 353 354 355 353 342 330 324 321 318 306 297 317 326 336 346 351 352 345 339 337 335 333 338 345 343 335 330 325 324 325 319 310 304 301 297 297 299 293 289 287 283 281 279 271 260 247 236 230 224 223 225 223
300 301 301 293 303 332 342 344 354 3 357 352 353 355 353 342 327 318 316 313 301 303 321 332 340 347 350 348 343 337 334 332 330 333 341 344 335 326 323 324 326 325 318 311 307 303 301 302 299 296 294 289 285 282 276 271 263 247 232 223 219 219 218
295 294 291 281 289 320 338 343 355 4 358 351 353 356 350 341 334 329 333 348 357 343 337 340 343 343 341 338 336 331 327 327 326 324 329 340 334 318 315 321 323 321 314 308 305 304 303 303 300 297 293 289 286 282 276 272 268 255 239 230 223 215 213
293 287 281 274 278 302 333 342 350 357 355 352 354 354 352 5 28 28 22 23 16 358 348 346 342 336 333 331 329 327 326 325 324 323 326 332 324 311 313 321 321 316 311 305 302 300 298 296 295 295 294 291 287 283 277 271 268 262 250 239 229 221 217
291 282 279 280 276 290 326 339 341 348 351 351 354 354 3 39 55 43 26 21 10 355 347 341 334 330 328 328 327 327 328 328 328 330 330 327 322 319 321 323 319 313 310 306 303 301 298 295 292 289 289 291 292 292 288 279 271 263 257 248 238 232 228
284 276 275 279 278 293 325 337 336 342 348 351 355 357 10 43 47 24 6 6 4 352 341 333 329 327 326 328 329 330 332 334 337 339 336 332 331 331 331 328 323 320 319 313 308 305 300 298 296 292 287 287 295 304 305 300 293 280 267 257 248 241 239
294 293 284 280 286 308 330 339 338 342 350 353 355 358 11 30 29 7 353 357 359 345 333 328 326 326 328 331 334 336 338 341 345 344 341 342 343 342 341 340 337 333 329 323 317 312 307 306 308 309 308 307 309 314 313 306 303 300 290 272 257 250 248
309 309 294 286 298 318 331 340 340 345 352 354 357 2 6 13 12 356 350 356 353 335 330 329 329 330 334 338 340 342 346 348 349 349 349 350 352 352 352 350 345 341 337 330 324 322 319 317 318 318 317 316 313 313 312 307 301 300 299 291 276 263 256
314 311 300 297 316 327 333 342 348 353 354 356 359 359 356 356 349 342 345 348 340 333 333 335 337 338 339 342 345 348 351 351 351 353 355 358 359 359 357 354 349 344 340 334 330 330 325 319 318 317 315 315 315 312 310 309 305 299 294 290 284 276 265
322 319 313 310 321 331 334 340 355 357 352 354 359 358 354 348 336 337 344 343 337 339 342 340 341 345 346 348 351 354 356 356 356 358 359 359 1 0 358 355 352 347 343 339 334 329 324 320 320 321 321 320 320 317 312 311 312 310 301 291 282 273 267
320 321 324 321 326 329 330 340 3 356 346 350 5 10 1 352 342 343 347 344 338 341 346 343 342 350 355 356 358 360 0 360 359 359 359 358 357 357 357 356 354 352 348 343 336 330 328 328 328 328 327 325 322 319 319 320 321 320 317 311 298 278 262
315 323 328 323 324 327 331 339 347 345 342 348 10 18 8 5 4 353 346 344 342 343 349 351 353 0 2 1 0 0 359 358 358 356 355 355 355 354 354 355 356 354 348 342 338 336 335 334 333 330 329 330 327 324 324 326 325 323 322 319 312 295 271
332 356 355 325 322 341 17 348 319 328 343 351 9 16 9 13 17 358 345 348 357 356 356 1 2 4 5 1 358 358 356 354 353 351 349 350 350 350 350 351 353 351 345 340 339 339 337 334 333 333 333 332 330 326 326 327 325 322 321 319 316 311 296
11 21 30 23 336 323 28 0 332 333 350 359 9 10 5 12 18 1 351 2 18 22 18 13 7 5 5 359 356 356 352 349 348 347 344 344 344 345 346 346 347 345 340 338 338 339 337 335 334 334 334 331 328 326 325 325 325 323 322 320 317 314 311
28 22 37 44 35 29 21 10 3 355 355 4 10 2 357 9 16 3 2 20 37 35 27 21 11 6 3 357 353 353 348 346 345 343 341 340 339 339 339 339 339 337 333 334 339 338 335 334 335 333 331 327 325 325 325 325 325 324 322 322 320 315 314
318 292 74 43 37 40 29 13 11 5 359 3 5 358 355 4 9 6 15 33 43 36 25 19 11 3 359 354 350 347 344 343 342 339 339 338 335 334 333 332 332 331 330 332 337 336 332 333 334 332 329 327 325 325 325 323 323 321 321 322 324 322 320
310 263 218 233 292 327 330 328 347 2 1 354 348 350 358 5 0 5 19 30 33 28 17 8 0 354 350 347 343 341 340 338 336 334 333 334 332 329 329 329 329 330 331 332 333 332 330 331 332 331 329 328 327 326 324 321 320 321 323 324 323 323 322
327 300 261 256 272 294 308 310 317 354 10 360 343 345 2 20 6 0 6 13 19 17 4 354 346 340 338 336 335 336 333 330 330 329 327 328 329 328 327 329 329 329 330 331 330 328 328 329 330 330 329 328 327 325 323 322 321 321 322 322 322 321 320
273 291 296 299 305 312 318 324 334 353 1 347 337 348 16 33 17 359 352 353 359 356 345 336 331 327 326 326 325 326 324 322 323 323 321 320 323 323 323 325 326 327 328 329 327 326 327 329 329 328 329 328 326 324 322 321 321 323 323 322 322 320 317
Height
776 775 773 771 770 769 769 768 767 766 765 765 765 765 765 765 765 765 764 764 764 765 765 765 766 766 767 768 768 768 769 770 770 771 771 772 772 772 773 774 774 771 768 769 772 771 770 772 771 769 769 770 771 772 773 774 775 776 778 779 779 780 781
775 774 772 770 770 769 768 767 766 765 764 764 763 763 763 763 763 763 763 762 762 762 763 763 763 763 764 765 765 766 766 767 768 768 769 769 769 769 769 770 771 769 767 766 768 769 768 769 770 768 767 767 768 768 769 770 771 773 774 775 776 776 776
774 773 771 770 769 768 767 766 765 764 763 763 762 762 762 762 762 762 761 761 760 760 761 761 760 761 762 763 763 763 763 764 765 766 766 766 767 767 767 768 768 767 766 764 765 767 766 766 767 766 765 765 765 766 766 766 767 769 770 771 772 772 773
774 772 771 770 769 768 767 766 764 764 763 762 762 761 761 761 760 760 759 759 758 759 759 758 758 758 759 760 760 760 760 762 762 763 763 764 764 764 764 765 766 765 764 763 763 763 763 764 764 764 763 763 763 764 763 763 764 765 766 767 768 768 768
773 772 770 769 768 767 766 765 764 763 762 762 761 760 760 759 759 758 758 757 757 757 757 757 756 756 757 758 757 757 758 759 760 761 761 761 761 762 762 762 763 763 763 762 761 760 760 762 762 761 761 761 761 761 761 761 760 761 762 763 763 764 764
773 771 770 769 768 767 766 764 764 763 762 761 760 760 759 758 758 757 757 756 756 756 755 755 755 755 755 756 756 755 756 756 757 757 758 758 758 759 760 760 760 760 760 760 759 758 758 759 759 759 759 758 758 758 758 758 757 758 758 759 759 760 760
773 771 770 769 767 766 765 764 763 762 761 761 760 759 758 758 757 757 756 755 755 755 754 754 754 754 754 754 754 754 754 754 754 754 755 755 755 756 757 757 757 757 757 757 756 755 755 755 756 756 756 756 756 756 755 755 755 754 755 755 755 755 756
772 771 769 768 767 766 764 763 762 761 761 760 759 758 757 757 756 755 755 754 754 753 753 753 752 752 752 752 752 752 752 752 752 752 752 752 752 753 753 753 753 753 753 753 753 752 751 751 752 753 752 752 753 752 751 751 752 752 752 752 751 751 752
772 770 769 767 766 765 764 763 762 761 760 759 758 757 756 755 754 753 753 752 752 752 751 751 751 751 751 751 750 750 750 750 750 750 750 749 749 749 749 749 749 749 748 749 749 748 748 748 748 748 748 747 747 746 746 747 749 748 748 749 748 747 747
771 769 768 766 765 764 763 762 761 760 759 759 758 756 755 754 753 752 752 751 751 751 751 750 750 750 750 750 749 749 749 749 749 748 748 747 747 747 746 746 745 744 744 744 744 743 743 743 742 741 742 742 742 742 742 743 744 744 745 747 746 744 743
770 769 767 766 764 763 761 761 760 759 759 758 757 755 754 753 752 751 751 751 750 750 750 750 749 749 749 749 749 749 748 748 747 747 746 745 745 744 744 743 742 741 740 740 739 739 739 738 737 736 737 737 738 739 738 739 739 740 741 742 741 740 739
769 768 767 765 763 762 761 760 758 758 758 756 755 754 753 751 751 751 751 750 750 750 749 749 749 749 749 749 749 748 747 746 745 744 744 743 742 741 740 740 739 738 738 737 735 734 734 734 733 732 733 733 734 734 735 735 735 735 735 736 736 736 735
768 767 766 764 763 761 760 759 758 758 757 756 755 754 752 751 750 750 750 749 749 749 749 749 749 749 749 749 748 747 746 745 743 742 741 740 739 738 737 737 736 736 735 734 733 731 729 729 729 728 728 729 730 731 731 731 731 730 731 731 731 732 732
767 766 765 763 762 761 760 759 758 757 756 755 754 753 751 750 750 750 750 749 749 749 749 749 749 748 748 747 746 746 745 743 742 741 740 739 738 736 735 734 733 733 732 731 730 729 726 725 726 725 724 725 727 728 727 727 726 727 727 727 727 728 730
766 765 764 762 761 760 759 758 757 757 756 754 753 752 751 750 750 750 749 749 749 749 748 748 748 748 747 747 746 745 744 743 741 740 739 738 736 735 734 733 732 731 730 729 728 726 724 723 722 722 721 722 723 723 722 722 723 723 723 724 724 725 726
765 764 763 762 760 759 758 757 757 756 755 754 753 751 750 750 749 749 749 749 749 748 748 748 748 748 747 746 745 744 743 742 741 739 738 736 734 733 732 731 730 729 728 726 724 723 722 720 719 718 718 718 718 718 718 718 718 718 720 720 720 720 720
764 763 762 761 760 759 758 757 756 755 755 754 753 751 750 750 749 749 749 749 748 748 748 748 748 748 747 746 746 744 743 742 740 738 736 734 733 731 730 729 727 725 724 723 721 720 718 717 716 715 714 714 713 713 713 713 712 712 713 714 714 714 714
763 762 761 760 759 758 757 756 755 755 754 754 752 751 750 750 749 749 748 748 748 748 748 748 748 747 747 746 745 744 743 741 739 737 735 733 732 730 729 727 724 722 721 720 718 717 715 714 713 712 711 710 709 708 709 708 706 705 707 707 708 708 709
763 762 761 760 758 757 757 756 755 754 754 753 752 751 750 749 749 748 748 747 747 747 747 747 747 747 746 746 745 744 742 741 739 737 735 733 732 730 728 726 724 722 720 719 716 715 713 712 710 710 708 706 705 704 704 704 703 702 702 701 701 702 704
762 761 760 759 758 757 757 756 755 754 753 753 752 751 750 749 748 748 747 747 747 747 747 747 747 746 746 745 744 743 741 740 738 737 734 733 732 730 728 726 723 721 720 718 716 714 712 710 708 707 706 704 702 701 700 699 699 699 698 697 696 697 698
761 760 760 759 758 758 757 756 755 754 753 752 752 751 749 748 748 747 747 747 747 748 747 747 746 746 745 744 742 741 740 738 737 736 733 732 731 730 727 724 721 720 719 717 715 712 710 709 707 705 704 702 700 698 697 696 695 695 694 693 692 693 693
760 760 759 758 758 758 757 757 756 755 753 752 751 751 749 748 748 748 748 748 748 748 747 747 746 744 743 742 741 740 738 737 735 734 732 731 730 728 725 723 720 719 717 715 713 711 709 707 705 703 702 700 699 697 695 694 692 691 690 689 689 689 689
759 759 758 758 758 758 757 757 756 755 754 752 751 751 750 749 748 748 748 748 748 748 747 746 745 743 742 741 739 738 737 735 734 733 731 730 728 726 724 722 720 718 716 714 712 710 708 706 704 702 700 699 697 696 693 691 689 688 687 685 685 686 685
758 758 758 757 757 757 757 757 756 754 753 752 751 751 750 749 748 747 747 748 748 747 746 745 744 743 741 740 738 736 735 734 732 731 730 728 726 724 722 721 719 718 716 714 712 710 708 706 704 702 700 698 696 694 692 690 688 686 685 683 682 682 683
758 758 757 757 757 757 756 756 755 754 753 752 751 750 750 749 747 747 747 747 747 746 745 744 743 741 740 738 737 735 734 733 731 730 729 727 725 724 722 721 720 718 716 715 713 711 709 707 706 704 701 699 696 693 691 689 687 685 683 682 681 680 679
757 757 756 756 756 756 756 755 755 753 753 752 750 750 749 748 747 746 746 746 746 745 744 742 741 740 739 737 736 735 734 733 731 730 729 727 726 724 723 722 721 719 718 716 714 712 711 709 707 704 702 699 697 694 692 690 688 685 683 681 680 678 676
757 756 756 755 755 755 755 754 754 753 752 751 750 750 749 747 746 746 746 745 744 743 742 741 740 739 738 737 736 735 734 733 732 730 729 728 727 726 725 724 722 721 720 718 716 714 712 709 707 705 702 700 698 695 693 691 689 686 683 681 679 677 674
756 756 755 755 755 755 754 754 754 753 752 751 750 750 749 747 746 745 745 744 743 742 741 740 740 739 738 737 736 735 734 733 732 731 730 729 728 727 726 725 723 722 721 719 717 715 712 710 708 705 703 701 698 696 694 692 690 687 684 681 679 676 673
756 756 755 755 755 754 754 754 754 753 752 752 751 750 749 748 746 745 745 744 743 742 741 741 740 740 739 738 737 736 736 735 734 733 732 731 729 728 727 726 724 723 721 720 718 716 713 711 709 706 704 702 699 697 695 693 690 688 685 682 679 675 672
757 756 755 755 755 754 754 754 754 753 753 752 751 750 750 749 747 746 745 744 743 743 742 742 741 741 740 740 739 738 737 736 735 734 733 732 730 729 728 727 725 724 723 721 719 717 715 713 710 708 706 704 701 699 696 694 692 689 686 684 681 677 673
757 756 755 755 755 754 754 754 753 753 752 752 751 750 749 749 748 746 745 744 743 743 743 742 742 742 741 741 740 739 738 737 736 735 734 732 731 730 729 727 726 725 723 721 720 718 716 714 712 710 707 705 703 700 697 695 692 690 687 685 682 678 675
756 756 755 755 754 754 754 753 752 752 752 751 750 749 748 748 747 746 744 744 743 743 743 743 743 742 742 741 740 740 739 738 737 736 734 733 731 730 729 728 727 725 724 722 720 719 717 715 713 711 709 707 704 701 699 696 693 691 688 685 682 679 676
754 754 754 754 753 753 753 752 752 752 751 750 750 748 747 747 746 746 745 744 744 744 744 743 743 743 742 742 741 740 739 738 737 736 735 734 732 731 729 728 727 725 724 722 721 719 717 715 714 712 710 707 705 703 700 697 695 692 689 686 683 680 678
753 753 753 753 752 752 751 751 751 751 750 750 749 748 747 747 747 746 745 745 744 744 744 744 743 743 742 742 741 741 740 739 738 737 736 734 733 731 730 728 727 725 724 722 721 720 718 716 714 712 710 708 706 703 701 698 696 693 690 688 685 683 680
753 752 752 752 751 751 751 750 750 750 750 750 749 748 747 747 747 746 746 745 745 745 744 744 744 743 743 742 741 741 740 739 738 737 736 734 733 731 730 728 727 725 724 722 721 720 718 716 714 713 711 709 706 704 702 699 697 694 692 689 687 685 682
753 752 752 752 751 751 751 750 750 750 750 750 749 748 747 747 747 747 746 746 745 745 744 744 744 743 742 742 741 741 740 739 738 737 735 734 733 731 730 728 727 725 724 723 721 720 718 716 715 713 711 709 707 705 702 700 698 695 693 691 689 686 684